Weather History for PAEN - February, 2012

Change the Weather History Date:

Tuesday, February 7, 2012

  Actual Average Record
Temperature  
Mean Temperature 26 °F -  
Max Temperature 32 °F 26 °F 43 °F (1971)
Min Temperature 19 °F 11 °F -33 °F (1990)
Degree Days  
Heating Degree Days 40    
Moisture  
Dew Point 19 °F    
Average Humidity 79    
Maximum Humidity 89    
Minimum Humidity 66    
Precipitation  
Precipitation 0.00 in - - ()
Sea Level Pressure  
Sea Level Pressure 29.77 in    
Wind  
Wind Speed 11 mph (NE)    
Max Wind Speed 18 mph    
Max Gust Speed 23 mph    
Visibility 10 miles    
Events      
Averages and records for this station are not official NWS values.
T = Trace of Precipitation, MM = Missing Value Source: NWS Daily Summary

Daily Weather History Graph

Daily Weather History Graph

Search for Another Location

Airport or City:

Trip Planner

Search our weather history database for the weather conditions in past years. The results will help you decide how hot, cold, wet, or windy it might be!

Date:

Astronomy

Feb. 07, 2012 Rise Set
Actual Time 9:07 AM AKST 5:31 PM AKST
Civil Twilight 8:20 AM AKST 6:18 PM AKST
Nautical Twilight 7:30 AM AKST 7:09 PM AKST
Astronomical Twilight 6:40 AM AKST 7:58 PM AKST
Moon 6:14 PM AKST (2/7) 8:29 AM AKST (2/7)
Length of Visible Light 9h 57m
Length of Day
8h 24m
Full, 100% of the Moon is Illuminated
Feb 7
Full
Feb 7
Full
Feb 14
Last Quarter
Feb 21
New
Feb 29
First Quarter

Hourly Weather History & Observations

Time (AKST) Temp. Windchill Dew Point Humidity Pressure Visibility Wind Dir Wind Speed Gust Speed Precip Events Conditions
12:53 AM 25.0 °F 14.8 °F 19.9 °F 81% 29.94 in 10.0 mi NNE 10.4 mph - N/A   Clear
1:53 AM 25.0 °F 16.3 °F 19.9 °F 81% 29.93 in 10.0 mi NE 8.1 mph - N/A   Clear
2:53 AM 24.1 °F 15.2 °F 19.0 °F 81% 29.92 in 10.0 mi NNE 8.1 mph - N/A   Clear
3:53 AM 24.1 °F 15.2 °F 19.0 °F 81% 29.91 in 10.0 mi NE 8.1 mph - N/A   Clear
4:53 AM 24.1 °F 13.1 °F 19.9 °F 84% 29.90 in 10.0 mi NNE 11.5 mph - N/A   Clear
5:53 AM 23.0 °F 13.1 °F 19.0 °F 85% 29.87 in 10.0 mi NNE 9.2 mph - N/A   Clear
6:53 AM 23.0 °F 13.1 °F 18.0 °F 81% 29.86 in 10.0 mi NE 9.2 mph - N/A   Clear
7:53 AM 21.9 °F 11.7 °F 18.0 °F 85% 29.85 in 10.0 mi NNE 9.2 mph - N/A   Clear
8:53 AM 21.9 °F 9.8 °F 18.0 °F 85% 29.85 in 10.0 mi NNE 12.7 mph - N/A   Clear
9:53 AM 23.0 °F 10.1 °F 18.0 °F 81% 29.84 in 10.0 mi NE 15.0 mph - N/A   Clear
10:53 AM 26.1 °F 12.7 °F 19.9 °F 78% 29.82 in 10.0 mi NE 18.4 mph - N/A   Clear
11:53 AM 27.0 °F 17.3 °F 19.9 °F 75% 29.81 in 10.0 mi NNE 10.4 mph - N/A   Clear
12:53 PM 28.9 °F 19.2 °F 21.0 °F 72% 29.79 in 10.0 mi NE 11.5 mph - N/A   Clear
1:53 PM 30.9 °F 21.7 °F 21.9 °F 69% 29.76 in 10.0 mi NNE 11.5 mph - N/A   Clear
2:53 PM 32.0 °F 20.5 °F 21.9 °F 66% 29.73 in 10.0 mi NE 18.4 mph - N/A   Clear
3:53 PM 32.0 °F 21.2 °F 21.9 °F 66% 29.72 in 10.0 mi NE 16.1 mph 23.0 mph N/A   Clear
4:53 PM 28.9 °F 19.8 °F 21.0 °F 72% 29.70 in 10.0 mi NNE 10.4 mph - N/A   Clear
5:53 PM 26.1 °F 16.2 °F 19.0 °F 75% 29.69 in 10.0 mi NNE 10.4 mph - N/A   Clear
6:53 PM 23.0 °F 11.7 °F 18.0 °F 81% 29.67 in 10.0 mi NE 11.5 mph - N/A   Clear
7:53 PM 24.1 °F 16.0 °F 19.0 °F 81% 29.66 in 10.0 mi ENE 6.9 mph - N/A   Clear
8:53 PM 19.9 °F 9.3 °F 17.1 °F 89% 29.64 in 10.0 mi NE 9.2 mph - N/A   Clear
9:53 PM 23.0 °F 13.9 °F 18.0 °F 81% 29.63 in 10.0 mi NE 8.1 mph - N/A   Clear
10:53 PM 24.1 °F 12.0 °F 19.0 °F 81% 29.61 in 10.0 mi NNE 13.8 mph - N/A   Clear
11:53 PM 23.0 °F 10.6 °F 19.0 °F 85% 29.60 in 10.0 mi North 13.8 mph - N/A   Clear